Simultaneous Nadir Overpasses (SNOs) Predictions

Prediction of SNOs between FY3D and AQUA Satellite Orbit:

Table of predicted SNOs for the next 14.0 days since TLE Epoch: 7/19/2025
Index Date (FY3D) Time (FY3D) Lat,Lon (FY3D) SZA (FY3D ) Date (AQUA) Time (AQUA) Lat,Lon (AQUA) SZA (AQUA ) Distance(km) Time Diff (sec)
1 07/20/2025 04:19:18 -79.51, -75.44 120.91 07/20/2025 04:19:44 -79.51, -75.47 120.92 0.70 26
2 07/20/2025 05:09:57 79.32, 93.51 58.85 07/20/2025 05:08:57 79.31, 93.57 58.85 1.43 60
3 07/22/2025 13:50:01 -79.55, 141.58 120.39 07/22/2025 13:50:39 -79.55, 141.53 120.39 1.24 38
4 07/22/2025 14:40:39 79.33, -49.18 59.33 07/22/2025 14:39:51 79.32, -49.16 59.33 0.55 48
5 07/24/2025 23:20:44 -79.62, -1.70 119.79 07/24/2025 23:21:33 -79.62, -1.60 119.81 2.05 49
6 07/25/2025 00:11:19 79.31, 168.38 59.80 07/25/2025 00:10:43 79.32, 168.24 59.82 3.07 36
7 07/27/2025 08:51:26 -79.63,-144.44 119.25 07/27/2025 08:52:26 -79.62,-144.32 119.27 2.58 60
8 07/27/2025 09:42:02 79.35, 25.38 60.39 07/27/2025 09:41:37 79.37, 25.25 60.41 2.92 25
9 07/29/2025 18:22:07 -79.62, 73.08 118.71 07/29/2025 18:23:18 -79.62, 73.09 118.73 0.52 71
10 07/29/2025 19:12:46 79.43,-117.92 61.06 07/29/2025 19:12:31 79.43,-117.88 61.05 1.01 15



Historial Predications of SNOs between FY3D and AQUA
